Home > Weather > Almería > Past weeks

Flag for Spain Past Weather in Almería, Spain — Yesterday and Last 2 Weeks

Now
66 °F

Sunny.


Feels Like: 66 °F
Forecast: 60 / 84 °F
Wind: 13 mph from Northwest

Location: Almeria / Aeropuerto

Current Time: Jun 1, 2016 at 9:26:30 AM

Latest Report: Jun 1, 2016 at 8:00 AM


Visibility: 31 mi

Pressure: 30.07 "Hg

Humidity: 41%

Dew Point: 42 °F

Location of AlmeríaLocation

Past Weather in Almería — Graph

°F

Almería Temperature Yesterday

Maximum temperature yesterday: 71 °F (at 6:00 PM)
Minimum temperature yesterday: 61 °F (at 6:00 AM)
Average temperature yesterday: 66 °F

High & Low Weather Summary for the Past Weeks

 TemperatureHumidityPressure
High85 °F (May 21, 5:00 PM)94% (May 19, 5:00 AM)30.19 "Hg (May 19, 5:00 AM)
Low58 °F (May 30, 5:00 AM)21% (May 17, 1:00 PM)29.78 "Hg (May 25, 7:00 PM)
Average69 °F66%30.00 "Hg
* Reported May 17 8:00 AM — Jun 1 8:00 AM, Almería, Weather by CustomWeather, © 2016

Note: Actual official high and low records may vary slightly from our data, if they occured in-between our weather recording intervals... More about our weather records

Advertising

Almería Weather History for the Previous 24 Hours

Scroll right to see more
 ConditionsComfort  
Time TempWeatherWind HumidityBarometerVisibility
8:00 AM
Wed, Jun 1
66 °FSunny.13 mph41%30.07 "Hg31 mi
7:00 AM64 °FMild.12 mph44%30.07 "HgN/A
6:00 AM62 °FRefreshingly cool.2 mph53%30.07 "HgN/A
5:00 AM64 °FClear.5 mph44%30.08 "Hg34 mi
4:00 AM64 °FMild.7 mph43%30.09 "HgN/A
3:00 AM65 °FMild.3 mph44%30.10 "HgN/A
2:00 AM64 °FMild.2 mph50%30.11 "HgN/A
1:00 AM65 °FMild.1 mph51%30.11 "HgN/A
12:00 AM66 °FMild.No wind54%30.11 "HgN/A
11:00 PM
Tue, May 31
66 °FMild.No wind72%30.10 "HgN/A
10:00 PM67 °FMild.No wind71%30.09 "HgN/A
9:00 PM69 °FMild.No wind67%30.08 "HgN/A
8:00 PM71 °FPassing clouds.2 mph65%30.06 "Hg31 mi
7:00 PM71 °FMild.2 mph69%30.06 "HgN/A
6:00 PM71 °FMild.7 mph71%30.05 "HgN/A
5:00 PM71 °FPassing clouds.8 mph65%30.05 "Hg28 mi
2:00 PM69 °FPassing clouds.7 mph70%30.07 "Hg28 mi
12:00 PM69 °FMild.7 mph68%30.08 "HgN/A
11:00 AM70 °FPassing clouds.7 mph69%30.06 "Hg28 mi
10:00 AM68 °FMild.5 mph69%30.05 "HgN/A
Weather by CustomWeather, © 2016

See weather overviewHow to use our weather pages